GEFSCGP_500_meanwind_210.txt.gz
Wind_Speed
16 18 21 24 28 31 34 36 37 38 38 38 38 39 39 40 40 39 38 37 37 38 38 38 38 37 37 37 37 37 37 37 38 39 40 40 40 41 42 42 43 43 43 43
13 15 17 20 22 26 30 32 34 36 36 37 37 37 38 39 39 38 39 38 38 38 38 38 37 37 37 37 37 37 37 38 38 38 39 41 41 42 42 43 44 44 45 45
12 13 14 16 19 21 25 28 31 32 34 35 36 36 36 36 37 37 38 38 38 38 38 38 38 38 38 37 38 38 39 39 39 40 41 42 43 43 44 45 46 47 47 48
10 10 12 14 15 17 20 23 25 27 29 31 33 34 34 34 36 37 37 37 37 37 37 37 37 38 38 39 39 39 39 39 40 41 42 43 44 46 47 48 49 49 49 50
8 8 9 10 12 14 16 18 20 22 24 26 28 31 33 33 33 34 35 35 35 36 37 38 37 38 39 39 39 39 40 40 41 42 43 44 45 47 49 50 50 50 50 51
7 8 9 9 11 13 14 16 17 19 21 23 24 26 28 29 30 31 32 33 33 34 35 36 37 38 39 39 39 40 41 42 43 43 44 46 46 47 48 49 50 51 51 52
6 8 9 9 10 12 13 14 15 17 19 22 22 23 25 26 27 29 30 31 32 32 32 34 36 37 38 39 40 41 41 42 44 45 45 46 47 47 47 47 49 50 51 53
5 7 8 10 11 11 12 13 14 16 17 19 20 21 22 24 25 27 28 29 30 32 33 34 35 36 38 39 40 42 42 42 43 44 45 45 45 46 47 48 49 50 51 53
7 7 7 8 8 9 9 11 12 14 16 18 19 19 21 22 23 25 27 27 29 31 33 34 34 35 37 39 40 41 42 42 42 44 45 46 46 48 49 50 51 51 52 53
8 8 7 7 8 8 9 10 11 12 14 16 17 18 19 20 21 23 25 26 27 29 30 32 33 34 36 37 38 38 39 40 41 42 43 45 46 48 48 49 50 51 53 53
8 8 7 7 8 9 9 10 11 13 14 14 16 16 18 19 20 21 22 23 25 27 28 30 31 33 33 35 36 37 38 40 41 41 42 44 45 47 48 48 49 51 52 52
9 9 8 8 8 8 9 10 11 13 14 14 15 16 17 18 18 19 20 22 23 24 26 28 29 31 32 33 35 36 37 39 41 42 43 44 44 45 46 47 49 50 51 52
10 10 10 9 9 8 8 9 10 12 14 15 16 16 17 17 18 18 20 21 21 22 23 25 27 29 31 33 34 35 37 38 39 41 42 43 43 44 44 45 47 48 49 51
10 11 11 10 10 10 10 10 11 13 15 16 17 17 18 19 19 19 20 20 21 22 23 24 25 27 29 31 32 34 35 36 38 39 40 41 42 42 44 45 46 48 49 51
11 11 11 10 11 11 11 12 12 13 15 16 16 17 18 19 21 22 22 22 23 24 25 26 27 29 30 31 32 34 35 37 38 39 40 41 42 44 45 46 47 48 50 51
12 12 12 11 12 12 12 13 14 14 15 16 17 17 18 20 21 22 23 24 25 25 26 27 28 29 30 32 33 34 36 37 38 39 40 41 42 43 45 47 48 49 50 52
14 14 13 13 14 14 14 15 16 16 17 17 19 19 19 20 21 22 23 24 25 26 28 28 29 30 32 33 34 35 36 38 39 40 41 42 43 44 46 48 49 50 51 52
15 15 16 15 16 16 16 16 17 19 19 20 21 21 22 22 23 24 25 26 27 28 29 30 31 31 32 33 34 35 36 38 39 40 42 43 44 46 47 48 49 51 52 53
16 17 18 19 19 19 18 18 19 21 21 22 23 23 24 25 25 25 26 27 29 30 31 32 33 33 34 34 35 37 37 38 39 40 42 43 45 46 47 49 50 52 53 54
19 19 20 21 22 21 20 21 22 23 23 24 25 25 26 27 27 27 28 28 30 31 32 33 34 35 36 36 37 38 39 39 40 41 43 44 45 47 48 49 51 52 53 54
21 21 22 23 24 24 24 24 25 25 26 27 27 27 28 28 29 30 30 31 32 33 33 34 35 36 38 38 39 40 40 41 41 42 44 45 46 47 48 49 50 52 53 54
24 24 24 25 25 25 26 26 27 28 29 29 29 30 30 30 31 31 32 33 34 34 35 36 37 38 39 40 41 41 41 42 42 43 44 46 47 47 48 49 50 51 53 53
26 26 26 26 25 26 27 28 28 29 29 30 30 31 31 31 32 33 34 35 35 35 36 37 38 39 40 41 41 41 42 43 44 45 46 47 47 48 48 50 51 52 52 53
27 28 28 28 27 28 29 29 29 30 31 31 31 31 32 32 33 33 34 34 35 35 36 36 37 38 40 41 42 42 43 44 45 46 47 47 47 47 49 50 51 52 52 52
28 29 30 29 29 30 30 31 31 32 32 32 32 32 32 32 32 33 33 34 34 35 36 37 38 39 40 41 42 43 44 45 45 46 46 47 47 48 49 50 51 52 52 52
30 31 31 31 31 32 32 32 33 34 34 34 34 33 33 34 34 34 34 35 36 37 38 38 39 40 41 42 43 44 45 46 46 46 46 46 47 49 50 50 51 51 51 51

GEFSCGP_500_meanwind_216.txt.gz
Wind_Speed
11 13 14 16 18 19 20 22 24 26 28 30 33 35 35 35 36 37 37 36 36 36 36 36 36 36 36 36 36 36 36 36 36 36 36 36 37 38 39 40 40 40 41 42
10 11 12 15 17 18 19 20 22 23 25 27 29 32 33 34 35 36 36 37 37 37 37 36 36 37 37 37 38 37 37 37 37 38 38 37 38 39 40 41 42 43 43 43
9 10 11 13 16 18 19 19 20 21 23 25 27 28 30 31 32 33 34 35 36 36 36 36 36 36 36 37 38 38 37 38 38 39 38 39 39 40 41 42 43 45 45 45
8 9 9 10 13 15 17 18 18 19 21 23 25 27 27 28 30 30 31 32 33 34 35 35 35 36 37 37 37 38 38 38 39 39 40 40 40 41 42 43 44 45 46 46
8 8 8 9 10 11 13 14 15 16 17 20 22 24 25 26 28 28 29 29 30 31 33 33 34 35 35 37 37 37 38 39 40 40 41 41 42 42 43 44 45 46 48 48
8 8 8 8 8 9 9 11 12 13 15 16 17 20 21 22 23 24 26 27 28 29 31 32 33 33 34 35 36 38 39 41 42 42 42 42 43 43 44 45 47 47 48 49
7 7 7 6 6 7 8 9 11 12 14 16 16 18 20 20 20 21 23 25 26 27 29 31 32 33 33 34 36 38 39 39 40 41 42 43 43 43 44 45 46 47 48 49
8 7 7 6 7 8 10 10 11 13 14 15 15 17 18 19 20 21 21 22 24 26 28 30 31 32 33 34 36 36 37 38 38 39 40 42 43 43 44 45 46 47 48 49
8 7 7 7 8 9 10 11 12 13 15 16 16 16 17 19 20 21 21 22 24 25 27 29 31 32 33 34 35 36 37 37 39 40 41 42 43 44 45 46 47 48 49 50
9 9 8 8 9 10 10 10 11 13 14 16 17 17 19 19 20 20 21 23 24 25 26 28 29 30 32 33 34 36 37 38 39 40 42 43 44 46 47 48 48 49 49 49
10 10 9 9 10 10 10 10 11 13 14 15 16 17 19 20 20 21 22 22 23 24 25 26 27 29 30 32 33 35 37 38 39 40 41 42 44 45 46 47 47 47 47 47
11 11 10 10 11 11 11 12 12 13 14 16 18 17 18 19 20 20 20 21 23 24 25 25 27 27 29 30 31 33 34 36 37 39 40 40 41 42 43 44 45 46 47 47
12 12 12 11 12 12 12 12 13 14 16 16 17 18 18 18 20 20 20 21 22 23 24 25 26 26 27 28 30 31 32 34 36 37 38 39 40 41 42 43 44 46 47 48
13 13 13 13 13 13 12 12 13 15 17 18 18 18 18 19 19 19 20 21 23 23 24 26 27 28 29 30 30 32 33 34 35 36 37 38 40 41 43 44 45 46 47 47
14 13 14 14 14 14 13 13 14 16 17 18 18 18 18 19 20 20 21 22 23 24 25 26 27 29 29 30 31 32 33 34 35 37 38 39 41 42 43 44 45 45 46 46
15 15 15 15 16 16 16 15 16 17 18 19 19 20 20 22 23 23 24 25 25 26 26 27 29 30 31 32 32 33 34 35 36 37 39 40 41 42 42 43 44 44 45 46
17 17 17 17 17 18 17 17 18 18 19 20 21 21 22 24 25 25 26 27 27 28 28 29 30 31 32 33 34 35 35 36 37 38 39 41 41 42 42 43 43 44 46 48
19 19 20 19 19 20 19 19 19 20 21 22 23 23 24 25 26 27 28 28 28 29 30 30 31 31 32 33 34 35 36 37 38 39 40 41 41 42 42 42 43 44 45 46
21 21 22 22 22 22 22 22 23 23 22 23 24 25 26 27 27 27 29 29 30 31 31 31 32 32 33 34 35 35 36 37 38 39 40 41 41 41 42 42 43 44 44 46
24 24 25 25 25 25 24 25 25 25 24 25 26 27 28 29 30 29 30 30 31 32 33 33 34 34 34 35 36 36 36 37 38 39 40 41 41 42 42 43 44 45 46 47
26 27 27 27 27 27 26 26 27 27 27 27 28 29 30 30 31 32 31 32 32 33 33 34 35 35 35 36 36 36 37 38 39 40 41 41 42 43 44 44 45 45 46 47
28 29 29 29 29 28 28 28 29 30 30 30 30 30 31 31 32 32 33 33 34 34 34 34 34 35 35 36 36 36 38 39 40 41 42 43 44 45 45 46 46 46 47 48
29 29 30 29 29 29 29 30 31 31 31 31 32 32 32 32 33 33 33 34 34 35 35 35 35 36 36 37 37 38 39 41 42 43 45 46 47 46 46 47 47 47 48 49
31 31 31 30 29 31 31 32 32 33 33 33 33 33 33 33 34 34 34 34 35 35 36 36 37 37 38 39 40 40 41 42 44 46 47 48 48 47 47 47 48 49 49 49
32 33 32 32 31 33 33 33 34 34 34 33 33 34 34 34 34 34 35 36 36 36 37 38 38 39 39 40 40 41 43 44 45 47 48 48 48 48 47 48 48 48 48 49
33 34 34 33 33 35 34 34 35 35 35 34 35 35 35 36 36 36 36 37 37 37 37 38 39 39 40 41 42 43 44 45 46 47 48 48 47 47 47 47 47 48 48 49

GEFSCGP_500_meanwind_222.txt.gz
Wind_Speed
5 7 9 9 10 11 13 13 15 17 19 21 23 25 26 28 29 29 29 29 31 32 33 33 34 34 34 34 34 34 34 33 33 33 34 35 35 35 36 36 37 38 38 39
4 5 7 9 9 10 11 12 13 14 17 19 21 21 24 26 27 27 28 29 29 31 32 33 33 34 35 35 35 35 35 36 35 35 35 36 37 37 37 38 38 39 40 40
5 4 5 7 9 10 11 12 12 13 14 16 19 20 22 24 25 25 25 26 27 27 29 31 32 33 34 35 36 36 36 36 37 37 37 37 38 38 39 39 39 40 40 41
5 5 5 6 8 9 10 11 11 12 13 14 16 18 19 20 23 24 24 25 26 26 27 27 29 31 32 32 34 34 34 35 36 37 38 38 38 38 39 40 40 41 42 43
6 5 5 5 6 8 9 10 11 11 12 14 14 16 15 17 19 21 22 23 24 25 25 25 26 28 30 31 31 32 33 34 35 37 38 38 38 38 39 40 41 41 42 43
6 6 6 6 7 8 9 10 11 11 12 14 14 15 15 15 17 18 20 21 22 22 23 24 25 26 28 29 30 31 32 33 35 36 36 37 38 38 39 40 41 42 43 43
6 6 6 6 7 8 9 10 11 12 12 13 13 14 14 14 15 17 18 19 20 20 21 22 24 25 27 29 30 31 32 33 34 35 35 36 37 39 40 41 41 42 44 44
6 6 6 6 7 8 9 9 11 12 13 13 12 13 14 14 15 16 17 18 19 20 22 23 24 25 27 28 29 31 32 33 34 35 36 37 38 40 40 42 43 44 44 45
6 6 7 7 7 8 8 9 10 12 13 14 14 15 15 16 16 16 17 19 19 20 22 23 24 25 26 27 28 29 31 32 34 35 36 37 38 40 41 42 43 43 44 45
7 7 7 8 8 8 9 9 10 12 14 15 16 16 16 16 16 16 16 18 19 21 22 22 23 24 25 26 27 28 28 30 32 34 36 37 38 39 41 42 42 43 44 45
8 8 8 9 10 10 10 10 11 12 14 16 17 16 17 17 18 18 17 17 18 19 21 22 24 24 24 25 26 27 29 30 31 33 35 36 38 40 41 41 42 42 43 43
9 9 10 10 11 11 11 12 12 14 15 16 18 17 17 18 19 19 19 19 19 19 19 19 20 22 23 25 25 27 28 30 31 32 33 34 36 38 39 41 42 43 44 46
10 10 10 10 11 12 12 12 13 15 15 15 16 16 17 18 19 19 19 18 18 17 17 18 19 20 22 24 25 27 28 30 31 32 33 34 35 37 39 40 42 43 44 46
11 11 11 12 12 12 12 13 14 15 16 16 16 16 16 17 18 17 17 17 17 18 18 19 21 22 24 25 26 28 29 31 32 33 34 35 36 37 38 40 41 43 45 46
12 12 12 12 13 13 14 14 15 16 16 17 16 16 16 17 18 18 18 18 19 20 20 21 22 24 25 26 28 29 30 32 32 33 34 36 37 38 39 41 42 43 44 45
15 15 14 14 15 15 15 15 16 17 17 18 18 17 17 18 19 20 20 20 21 21 22 23 24 26 27 28 29 30 31 32 33 34 35 36 37 38 40 40 41 42 43 44
18 18 18 17 18 18 18 17 18 18 19 19 19 19 19 20 21 22 22 22 23 23 24 24 25 26 28 28 29 30 31 33 34 35 36 37 38 39 40 41 41 42 43 44
21 22 22 21 21 21 20 20 20 20 20 21 21 21 22 23 24 25 25 25 25 25 26 26 27 28 29 29 30 31 32 33 35 36 37 38 39 39 39 40 42 43 44 44
24 24 25 24 24 23 22 23 23 23 22 23 23 24 24 25 25 25 26 26 27 27 28 28 29 30 30 31 31 31 32 33 35 36 37 38 38 39 40 41 43 44 45 45
26 27 27 27 27 27 25 25 26 26 25 25 25 26 26 26 26 26 26 27 27 28 29 30 30 30 31 31 31 32 32 33 34 35 36 37 38 39 41 43 44 45 45 44
28 29 29 29 30 28 28 28 28 28 28 28 28 28 27 27 28 28 27 28 28 29 29 30 30 30 31 32 32 33 34 34 35 36 37 38 39 41 43 44 45 46 45 45
29 30 30 30 31 29 30 31 31 31 30 30 30 29 29 29 29 29 29 29 29 29 30 31 31 31 32 33 33 34 35 36 37 38 39 40 41 42 44 45 46 46 45 46
30 31 31 31 30 31 32 32 32 32 32 31 31 31 30 30 30 30 30 30 30 30 30 31 31 32 33 34 34 35 36 37 38 39 40 41 42 44 45 45 46 46 46 47
32 32 32 31 30 31 33 33 32 32 32 31 31 31 31 31 31 31 30 31 31 31 31 32 32 33 34 35 35 36 37 38 39 40 41 42 43 44 45 46 47 47 48 48
33 33 32 31 30 32 33 33 33 32 32 32 32 32 32 33 33 32 32 33 33 33 34 34 34 35 36 36 37 38 39 40 40 41 43 44 45 45 46 47 48 49 49 50
33 33 33 32 32 34 34 34 34 34 33 33 33 33 33 33 34 34 34 34 34 35 35 35 36 37 38 38 39 40 40 42 43 44 46 46 46 47 48 49 49 49 49 49

GEFSCGP_500_meanwind_228.txt.gz
Wind_Speed
9 9 9 9 9 10 11 12 13 13 14 15 18 20 21 22 24 26 26 26 25 25 26 27 28 29 30 32 33 34 33 34 34 34 34 35 34 35 35 36 36 37 38 39
9 9 9 9 10 11 11 12 13 13 14 15 16 18 21 22 23 24 25 26 26 25 25 26 27 28 29 31 34 36 35 35 35 34 35 35 36 36 37 38 39 40 39 40
9 9 8 9 10 11 12 12 12 14 15 16 16 16 18 20 22 24 25 26 27 27 26 26 26 27 28 30 31 33 35 35 35 35 35 36 37 38 39 39 40 41 41 41
9 9 8 9 10 11 11 12 12 13 14 15 16 16 15 17 19 20 22 24 25 26 26 27 27 28 27 28 29 29 31 33 34 35 36 37 38 38 39 40 40 41 41 41
8 9 9 10 11 11 11 12 12 12 13 14 14 17 16 17 18 19 20 21 22 23 25 25 27 28 28 28 28 29 29 31 33 35 35 36 37 38 38 38 39 40 41 42
8 8 8 9 10 11 12 12 12 13 13 14 14 16 16 16 18 19 21 21 22 23 24 24 25 27 27 27 29 31 32 32 33 34 35 35 36 37 36 36 38 40 41 42
7 6 6 7 8 9 10 11 12 12 13 15 16 17 18 18 19 20 22 22 23 24 25 25 25 26 26 26 27 28 31 31 32 33 34 35 36 37 37 37 38 39 40 41
7 7 7 7 8 9 10 11 12 13 15 16 17 18 18 19 19 20 21 22 23 24 25 26 26 26 27 28 28 28 29 30 30 31 32 34 36 37 38 39 39 39 39 40
8 9 9 9 9 10 11 11 13 14 16 17 18 19 19 20 20 21 21 23 23 24 25 26 26 26 27 28 29 28 28 29 30 32 32 33 34 35 35 36 38 38 39 40
10 10 11 11 11 11 12 13 14 15 17 18 18 19 20 21 22 22 23 23 24 25 26 27 27 28 27 28 29 29 29 29 30 31 32 33 34 35 36 37 38 39 40 41
11 11 11 12 13 13 14 14 15 16 17 19 19 19 20 21 22 23 23 24 25 26 26 27 27 28 28 28 29 30 31 30 30 30 31 32 33 34 35 37 38 39 40 41
12 12 12 13 14 14 15 15 16 18 18 19 20 20 20 21 22 23 24 24 25 25 25 26 26 26 26 27 28 28 30 31 31 31 32 32 33 33 35 36 37 39 39 41
14 14 14 15 15 15 16 16 17 18 19 20 21 20 21 21 22 23 24 24 24 24 24 24 24 24 25 26 26 26 27 28 29 30 31 31 31 33 34 36 37 38 39 40
15 15 16 17 17 17 17 17 18 19 20 21 21 21 21 21 22 22 23 23 23 23 23 24 23 24 24 25 25 25 26 27 27 28 29 30 32 34 35 36 37 38 39 40
17 17 17 18 18 19 19 19 20 20 21 21 21 21 21 21 22 22 22 23 22 22 22 23 24 25 25 25 25 25 26 27 28 29 30 31 33 35 36 37 38 39 39 41
18 18 19 19 20 20 20 20 21 21 22 22 22 22 22 22 23 24 24 23 23 24 24 24 25 26 26 26 26 26 27 28 29 30 31 32 34 36 36 37 38 39 40 42
20 20 21 21 21 22 21 21 22 22 23 23 23 23 24 24 25 26 27 26 26 26 26 26 27 27 27 27 27 28 28 29 30 31 32 33 35 36 37 38 39 40 41 42
22 23 23 23 24 24 23 23 24 24 25 25 25 25 25 26 27 28 29 28 27 28 28 28 28 28 28 28 28 29 29 30 31 32 33 35 36 37 37 38 40 42 43 43
25 25 26 26 27 26 25 25 26 27 26 27 27 27 27 28 29 30 30 30 30 30 30 31 30 30 30 30 30 31 31 32 33 34 35 35 36 37 38 40 42 43 44 44
27 27 28 29 29 29 27 27 28 29 28 29 29 29 29 29 29 29 30 30 31 31 32 32 32 32 32 32 32 32 32 33 34 34 35 36 37 38 40 41 43 44 45 45
29 30 30 30 31 31 30 30 30 31 31 31 31 31 31 30 31 31 31 31 31 32 32 33 33 33 33 33 34 34 34 35 36 36 37 38 38 40 41 43 44 45 45 45
32 32 32 32 33 31 31 31 32 32 33 33 33 33 33 33 32 33 32 32 32 33 33 34 33 33 34 34 34 34 35 36 37 37 38 39 41 42 43 43 44 45 45 45
33 33 33 33 32 33 33 34 34 35 34 34 34 34 34 34 34 34 33 33 33 33 33 33 34 34 34 35 35 35 36 37 38 38 39 40 42 42 43 44 45 45 45 46
35 34 34 33 32 33 34 35 36 36 36 36 35 35 36 35 35 34 34 34 33 33 33 33 33 33 34 34 35 36 37 38 38 39 40 41 42 42 43 45 45 46 46 47
36 36 35 34 32 34 35 37 37 38 37 36 36 36 36 36 36 36 35 35 34 34 33 33 33 33 34 34 35 36 37 39 40 40 41 42 43 44 45 45 46 46 47 48
37 36 36 36 35 37 38 39 40 40 38 37 36 35 36 36 36 36 35 35 35 35 35 35 35 35 35 35 36 38 39 40 41 42 43 44 45 46 47 47 47 48 49 50

GEFSCGP_500_meanwind_234.txt.gz
Wind_Speed
8 9 11 12 11 11 11 12 12 12 13 13 13 13 15 15 16 17 18 20 21 22 23 23 24 24 24 24 25 26 27 28 30 32 33 33 34 34 35 35 35 35 35 36
8 9 10 11 11 11 11 12 13 13 13 13 13 12 13 15 15 15 16 17 19 22 24 24 24 24 25 25 26 26 26 27 28 30 30 31 33 33 34 35 35 36 36 36
8 8 9 10 10 10 11 11 12 13 13 13 13 12 13 13 15 15 16 17 19 20 22 24 24 25 25 26 26 27 28 27 27 28 28 30 31 32 33 34 35 36 37 38
7 9 9 10 11 11 11 11 11 11 13 14 13 13 13 14 15 16 17 17 19 20 21 22 24 24 24 25 26 26 27 28 28 28 30 31 31 32 33 34 35 36 37 38
6 8 9 10 10 11 11 12 12 12 13 13 13 14 13 15 15 16 17 18 18 19 20 21 22 24 25 26 27 27 28 28 29 29 30 30 31 32 33 34 36 37 38 38
7 8 9 9 10 11 11 12 13 14 15 15 15 16 15 15 16 17 18 18 19 19 19 20 21 22 24 25 26 27 27 28 28 28 29 30 30 32 33 34 36 36 37 38
7 7 8 9 9 10 10 11 12 13 14 16 16 17 17 17 18 18 19 19 19 19 20 21 22 22 23 24 25 26 27 28 28 28 29 30 30 31 32 33 34 35 36 37
6 6 7 8 8 9 9 10 11 12 13 14 16 17 18 18 19 19 20 20 20 20 20 21 22 23 24 25 26 27 28 29 29 30 30 30 30 31 32 33 33 34 35 36
6 5 6 7 8 9 10 11 11 13 14 15 16 16 17 18 19 19 20 20 20 21 22 23 23 24 25 26 27 28 29 30 30 30 30 31 32 32 33 33 33 34 36 37
6 6 7 7 8 10 10 11 12 14 15 16 16 16 17 17 18 19 19 20 21 22 23 24 24 25 26 27 28 29 29 30 30 29 29 30 30 31 33 33 34 35 36 36
8 9 8 9 9 10 11 12 14 15 16 17 17 16 16 17 18 18 19 20 21 22 23 24 25 26 27 27 28 28 28 28 29 29 28 29 30 30 31 32 33 35 35 36
10 10 10 10 11 11 13 14 15 16 16 17 18 16 17 18 19 19 20 21 22 23 23 24 25 25 26 27 28 28 28 28 29 29 29 29 30 30 30 30 32 34 35 36
12 12 13 12 13 13 13 14 15 16 17 18 19 18 18 18 19 20 21 22 23 23 24 24 25 25 26 27 27 28 29 29 29 29 30 30 30 30 30 31 32 34 35 37
14 14 14 14 14 15 15 14 15 17 18 19 19 19 19 20 20 22 23 23 23 24 24 25 26 27 27 27 27 27 27 28 29 29 30 30 31 31 31 32 33 34 35 37
16 16 16 16 16 16 16 16 17 18 18 19 19 20 19 21 21 22 23 23 24 25 25 26 27 27 26 26 26 25 25 26 27 28 28 29 30 31 32 33 34 36 37 38
18 18 17 17 18 18 18 18 18 19 19 19 20 20 20 21 22 23 23 24 24 24 25 25 26 26 26 26 25 24 25 25 26 27 28 29 31 31 32 34 35 37 38 40
20 20 20 19 20 20 20 19 19 20 20 21 21 21 22 22 23 24 24 25 26 26 26 26 25 26 26 25 25 25 26 26 27 28 29 30 31 32 34 35 36 37 38 40
21 21 21 21 21 22 21 20 21 22 22 22 23 23 24 24 25 25 26 27 27 28 27 28 28 28 27 27 27 27 28 28 29 29 30 31 32 33 35 36 36 37 38 39
23 23 23 23 24 23 22 22 23 23 23 24 24 25 25 26 26 27 27 28 29 29 29 29 30 30 30 29 29 30 30 30 31 31 32 32 33 34 35 36 36 38 38 39
25 25 25 25 26 26 24 24 24 25 25 25 26 26 27 27 27 28 29 30 30 30 30 30 30 30 31 31 31 31 31 32 32 32 33 34 34 36 37 38 38 39 39 40
28 29 28 28 28 27 26 26 26 27 27 27 27 28 29 29 29 29 30 30 30 30 30 30 30 31 31 31 31 32 32 32 33 34 35 35 36 37 38 38 39 39 40 40
32 32 31 30 30 29 29 29 28 29 30 30 30 30 30 30 31 31 31 31 31 30 30 31 31 32 32 32 32 32 33 33 34 35 36 36 37 38 39 39 40 41 41 41
34 34 33 33 31 31 32 32 31 32 32 32 32 32 32 32 32 32 32 31 31 31 31 31 31 32 32 33 33 33 34 34 35 35 36 37 38 39 40 40 41 42 42 43
36 36 35 34 32 33 33 33 33 34 34 33 33 33 33 33 33 32 33 32 32 32 32 32 33 33 33 33 34 34 35 35 35 36 37 38 39 40 41 42 42 43 44 44
36 36 35 34 33 34 35 34 35 36 36 35 35 34 34 34 33 33 33 33 34 34 34 35 35 35 35 35 35 36 36 37 37 38 39 40 40 41 42 43 44 44 45 46
35 34 34 33 33 34 35 35 37 37 37 37 37 36 35 34 34 35 35 35 35 36 36 37 37 37 37 36 36 37 37 38 38 39 40 41 43 43 44 45 45 45 46 47

GEFSCGP_500_meanwind_240.txt.gz
Wind_Speed
9 10 11 12 12 14 15 16 16 16 16 16 17 17 17 17 17 17 17 17 18 18 19 21 22 23 24 24 25 27 29 30 30 31 31 31 32 32 33 33 34 34 34 35
7 8 9 10 11 12 14 15 15 14 15 16 17 18 18 18 18 17 18 17 18 19 19 20 20 22 23 24 26 27 28 29 30 30 29 30 31 31 32 33 33 34 35 35
7 7 8 9 11 12 12 14 14 14 15 17 17 18 18 17 17 17 18 18 18 19 19 19 19 21 23 25 26 28 28 29 30 30 29 29 29 31 32 33 33 34 34 35
7 7 7 8 9 10 11 13 13 14 15 16 17 18 17 17 17 18 18 18 19 19 19 19 20 21 22 24 26 27 29 30 30 30 29 29 30 31 31 32 32 33 33 35
6 7 7 7 7 9 11 12 13 13 14 16 17 18 18 18 18 18 18 18 19 20 20 21 21 21 23 24 25 26 27 28 29 30 30 30 30 30 30 31 31 32 33 34
7 7 8 8 8 9 11 12 13 13 14 15 15 17 18 18 18 18 19 19 20 20 21 21 21 22 23 24 24 25 26 27 29 30 31 31 30 30 31 31 31 32 33 35
8 8 8 8 8 9 10 11 12 12 13 14 14 16 17 17 18 19 20 20 21 21 21 21 22 23 24 24 24 25 26 27 28 29 30 30 30 30 30 31 32 33 34 35
8 8 9 9 9 9 9 11 12 13 13 14 14 15 16 17 18 19 20 21 22 22 22 22 23 23 24 25 25 26 26 27 28 28 29 29 29 29 29 30 32 33 34 35
9 9 9 10 10 11 11 11 12 14 14 15 14 15 15 16 17 18 19 20 21 22 23 23 24 24 25 25 26 26 26 27 27 27 27 28 29 29 30 31 32 32 33 34
11 11 11 11 12 12 12 12 13 14 16 17 17 16 17 17 17 18 18 19 20 21 22 23 24 25 26 26 26 26 27 27 27 28 28 29 29 30 30 31 31 32 33 34
12 12 12 12 13 13 14 14 15 17 17 18 18 17 18 18 18 18 19 19 20 21 21 22 24 25 25 26 26 27 27 28 28 28 28 29 30 30 30 30 31 32 33 34
14 14 13 13 14 14 15 15 16 17 18 18 19 17 17 18 19 19 20 20 21 21 21 22 23 24 25 25 26 27 27 27 27 27 28 28 29 29 29 30 30 31 33 34
15 15 16 15 15 15 15 16 17 18 19 19 20 18 18 19 19 20 20 21 22 22 22 23 24 24 25 26 26 27 28 28 28 28 29 29 29 29 30 31 32 32 34 34
16 17 17 17 18 17 17 17 18 19 20 20 19 19 19 20 21 21 21 22 22 22 22 23 24 25 26 27 27 28 29 29 29 29 29 30 30 30 31 32 34 35 35 35
19 19 19 19 19 19 19 18 19 20 21 21 20 21 21 22 23 22 22 23 23 23 24 24 25 26 27 27 28 28 29 29 29 29 29 30 31 32 33 34 35 36 36 36
22 22 22 21 21 21 20 19 20 21 21 22 22 22 22 24 24 24 24 24 24 25 26 26 27 27 28 28 28 29 29 29 29 29 30 31 32 32 33 34 35 35 36 37
24 24 24 23 23 23 22 21 21 22 22 23 24 23 24 25 25 25 25 25 26 27 27 27 27 27 28 28 29 30 30 29 29 30 30 31 31 32 33 34 34 35 36 36
26 26 26 24 24 25 23 23 23 24 24 25 25 25 26 26 26 26 26 26 27 27 28 28 28 28 29 29 30 30 30 30 30 31 31 31 32 33 33 34 35 36 37 37
27 27 28 28 28 27 25 25 25 26 25 26 27 27 27 27 27 27 27 28 28 28 29 29 30 30 30 30 30 31 31 31 31 32 32 33 33 34 34 35 36 37 37 37
29 30 30 31 31 30 27 27 27 28 28 27 28 28 28 29 29 28 28 29 30 30 31 31 31 31 31 31 32 32 32 32 33 33 33 34 35 35 36 37 37 38 38 38
31 32 32 33 33 32 30 30 30 30 29 29 29 30 30 30 30 30 30 30 31 31 32 32 32 32 32 32 33 33 33 33 34 35 35 36 36 36 37 38 39 39 40 40
33 34 33 34 35 33 32 32 32 32 32 32 32 32 32 31 31 31 31 31 31 32 32 32 32 33 33 34 34 35 35 35 36 36 37 37 38 38 38 39 39 40 40 41
37 36 36 36 35 34 34 34 33 34 34 34 34 34 33 33 33 32 32 32 32 32 33 33 34 34 34 35 36 36 37 37 37 38 39 39 40 39 39 40 40 41 41 42
38 37 37 38 36 36 36 35 35 36 36 36 35 35 34 34 34 33 33 33 33 33 33 33 35 35 36 36 37 38 38 38 38 39 39 40 40 40 41 42 42 43 43 43
40 38 38 38 38 38 37 36 37 37 37 37 36 35 34 34 34 33 33 33 32 32 33 34 35 36 36 37 37 38 38 38 39 39 40 40 41 41 41 42 43 43 44 44
41 39 39 38 37 39 38 38 38 39 38 38 37 36 35 35 34 34 33 33 33 34 35 35 36 37 37 38 38 39 39 39 40 40 40 41 41 42 43 43 43 43 44 45

GEFSCGP_500_meanwind_246.txt.gz
Wind_Speed
7 8 8 9 10 9 9 10 12 14 15 17 18 18 17 16 16 17 17 17 16 16 16 18 18 18 18 19 20 21 23 24 25 26 26 27 28 30 30 30 30 31 32 33
8 8 7 8 9 9 8 9 11 12 14 15 17 18 17 17 17 17 17 17 17 16 16 17 18 19 19 18 20 22 23 24 26 26 27 29 30 29 30 31 31 32 33 34
7 7 7 8 9 9 9 9 9 10 11 13 13 14 14 15 15 16 16 17 18 18 18 17 17 18 19 20 21 22 23 25 26 27 28 29 30 30 31 32 32 32 32 33
7 7 8 8 8 9 9 9 8 9 10 10 10 11 11 11 12 14 15 17 18 19 20 19 18 18 19 19 20 21 23 25 26 27 27 28 29 30 32 32 32 32 32 33
7 8 8 8 7 8 9 9 8 8 9 10 11 11 10 11 12 13 14 16 18 19 20 20 20 19 20 20 21 22 23 24 25 26 27 28 29 30 31 31 32 32 32 32
8 7 7 7 7 8 8 8 9 9 9 10 11 12 11 11 12 13 13 14 16 18 19 19 20 20 21 21 22 23 24 24 25 26 27 29 30 30 30 31 32 32 32 31
8 7 7 7 7 8 8 8 9 10 10 11 12 13 12 12 13 14 14 15 15 16 18 20 21 22 23 23 24 24 24 24 25 26 27 28 29 29 29 29 31 32 32 32
8 7 7 7 7 8 8 9 10 12 12 12 13 14 14 14 14 15 15 16 16 17 18 19 21 22 23 24 24 24 25 25 26 26 27 28 28 28 28 29 30 30 31 31
9 9 8 8 8 9 10 11 12 13 15 15 15 15 15 14 15 16 16 17 17 17 18 19 20 21 22 23 24 24 25 26 26 26 27 27 27 28 28 28 29 30 30 31
10 10 10 10 11 11 12 13 13 15 16 17 16 16 16 15 16 16 16 17 17 17 17 18 19 20 21 22 24 24 25 25 25 26 26 27 28 28 28 28 29 30 30 31
12 13 13 13 13 13 13 14 15 16 17 18 19 17 17 17 17 17 17 17 17 17 17 18 19 20 21 22 23 23 23 24 25 26 26 27 28 28 29 29 30 30 30 32
14 15 15 15 15 15 16 16 16 17 18 19 20 19 17 17 17 18 18 18 18 18 18 19 20 20 20 20 21 23 24 24 25 25 26 27 28 28 28 29 30 30 31 31
16 17 17 17 17 17 17 17 18 19 19 20 20 19 18 18 18 18 19 19 19 20 20 20 20 20 21 21 22 24 24 24 25 26 27 28 29 29 29 30 30 31 32 32
19 19 20 20 20 20 20 20 20 21 21 21 20 19 18 19 19 20 20 20 20 20 21 21 21 21 22 22 23 24 24 25 25 26 27 28 28 29 30 30 31 32 32 33
22 22 22 22 22 22 22 21 21 22 22 22 21 21 20 20 21 21 21 21 22 21 21 21 22 22 23 23 24 24 25 26 26 27 28 28 29 29 30 31 32 32 33 33
23 24 24 24 24 24 23 22 23 23 23 23 22 22 21 21 21 22 22 22 22 22 23 23 23 24 24 25 25 25 26 27 27 28 29 30 30 31 31 32 32 33 33 34
24 25 26 26 26 26 25 23 23 24 23 24 23 23 23 23 23 23 24 24 24 23 23 24 24 25 25 26 26 27 28 28 28 29 30 31 32 33 33 34 34 35 35 36
26 26 27 28 27 28 25 24 24 24 24 24 24 24 24 24 24 25 24 24 25 25 25 25 26 26 26 27 27 27 28 29 30 31 31 32 32 33 34 35 36 37 37 37
28 28 29 29 30 29 27 26 26 27 27 26 26 26 26 26 26 25 25 26 26 26 26 26 26 26 26 27 28 29 29 30 30 31 31 32 33 34 35 36 36 37 37 37
31 30 31 31 32 31 29 29 29 29 29 27 27 27 27 27 27 26 26 27 27 27 27 27 27 27 28 28 29 30 30 30 31 32 33 33 34 34 35 35 36 36 37 37
32 32 32 33 33 32 30 30 30 31 30 29 29 28 28 28 27 27 27 27 28 28 28 28 29 29 29 30 30 30 31 31 32 33 33 34 35 35 36 36 36 37 37 38
34 35 34 34 35 33 32 32 32 32 32 32 31 31 31 30 30 29 29 29 30 30 30 30 30 30 31 31 31 31 31 31 32 33 34 35 35 36 36 36 36 37 37 38
37 37 37 37 36 34 34 35 35 35 35 34 34 33 33 33 32 32 32 32 31 32 32 32 32 32 32 32 32 32 32 32 32 33 34 35 36 36 36 36 36 37 38 39
38 38 39 39 37 37 37 37 38 38 37 37 36 36 35 35 34 34 34 34 33 33 33 33 33 33 33 33 33 33 33 33 33 34 35 35 35 36 36 36 37 38 39 40
40 40 40 40 39 39 39 38 38 39 39 39 38 38 38 37 36 36 36 35 35 34 34 34 34 34 34 34 34 35 35 35 35 35 36 36 36 36 37 38 38 39 40 41
41 42 42 41 40 41 40 39 40 40 40 40 40 40 39 38 37 37 37 37 36 35 35 35 35 35 35 35 36 36 36 36 36 37 37 38 37 38 38 38 39 40 41 42